Weather History for Marietta, GA

Change the Weather History Date:

Saturday, September 28, 2013

  Actual Average Record
Temperature  
Mean Temperature 65 °F -  
Max Temperature 75 °F 75 °F 85 °F (2008)
Min Temperature 57 °F 57 °F 51 °F (2000)
Growing Degree Days 15 (Base 50)    
Moisture  
Dew Point 56 °F    
Average Humidity 74    
Maximum Humidity 95    
Minimum Humidity 51    
Precipitation  
Precipitation 0.00 in - - ()
Sea Level Pressure  
Sea Level Pressure 30.17 in    
Wind  
Wind Speed 3 mph (ENE)    
Max Wind Speed 12 mph    
Max Gust Speed -    
Visibility 10 miles    
Events      
Averages and records for this station are not official NWS values.
T = Trace of Precipitation, MM = Missing Value Source: NWS Daily Summary

Daily Weather History Graph

Daily Weather History Graph

Search for Another Location

Airport:

Trip Planner

Search our weather history database for the weather conditions in past years. The results will help you decide how hot, cold, wet, or windy it might be!

Date:

Astronomy

Sep. 28, 2013 Rise Set
Actual Time 7:30 AM EDT 7:26 PM EDT
Civil Twilight 7:05 AM EDT 7:51 PM EDT
Nautical Twilight 6:36 AM EDT 8:19 PM EDT
Astronomical Twilight 6:07 AM EDT 8:49 PM EDT
Moon 1:31 AM EDT (9/28) 3:31 PM EDT (9/28)
Length of Visible Light 12h 45m
Length of Day
11h 55m
Last Quarter, 36% of the Moon is Illuminated
Sep 28
Last Quarter
Oct 4
New
Oct 11
First Quarter
Oct 18
Full
Oct 26
Last Quarter

Hourly Weather History & Observations

Time (EDT) Temp. Dew Point Humidity Pressure Visibility Wind Dir Wind Speed Gust Speed Precip Events Conditions
12:58 AM 62.1 °F 57.6 °F 85% 30.14 in 10.0 mi East 1.2 mph - N/A   Scattered Clouds
1:58 AM 60.8 °F 56.7 °F 86% 30.14 in 10.0 mi ENE 2.3 mph - N/A   Clear
2:58 AM 60.3 °F 56.8 °F 88% 30.14 in 10.0 mi ENE 2.3 mph - N/A   Clear
3:58 AM 59.5 °F 56.1 °F 88% 30.15 in 10.0 mi NE 2.3 mph - N/A   Clear
4:58 AM 58.6 °F 56.7 °F 93% 30.15 in 10.0 mi NE 2.3 mph - N/A   Clear
5:58 AM 57.9 °F 56.1 °F 94% 30.16 in 10.0 mi ENE 1.2 mph - N/A   Clear
6:58 AM 57.2 °F 55.8 °F 95% 30.17 in 10.0 mi East 2.3 mph - N/A   Clear
7:58 AM 57.7 °F 55.8 °F 93% 30.20 in 10.0 mi East 2.3 mph - N/A   Partly Cloudy
8:58 AM 61.2 °F 56.8 °F 86% 30.22 in 10.0 mi East 5.8 mph - N/A   Partly Cloudy
9:58 AM 64.9 °F 57.0 °F 75% 30.23 in 10.0 mi ENE 11.5 mph - N/A   Partly Cloudy
10:58 AM 68.5 °F 55.9 °F 64% 30.23 in 10.0 mi East 8.1 mph - N/A   Partly Cloudy
11:58 AM 71.1 °F 55.8 °F 58% 30.23 in 10.0 mi East 8.1 mph - N/A   Partly Cloudy
12:59 PM 71.1 °F 55.8 °F 58% 30.23 in 10.0 mi East 8.1 mph - N/A   Scattered Clouds
1:55 PM 73.8 °F 54.9 °F 52% 30.19 in 10.0 mi ESE 11.5 mph - N/A   Partly Cloudy
2:56 PM 72.5 °F 54.7 °F 53% 30.16 in 10.0 mi East 5.8 mph - N/A   Partly Cloudy
3:55 PM 73.4 °F 54.3 °F 51% 30.15 in 10.0 mi ENE 4.6 mph - N/A   Mostly Cloudy
4:55 PM 73.9 °F 54.9 °F 51% 30.14 in 10.0 mi Variable 6.9 mph - N/A   Scattered Clouds
5:55 PM 72.5 °F 54.3 °F 53% 30.13 in 10.0 mi Variable 5.8 mph - N/A   Scattered Clouds
6:55 PM 69.4 °F 55.8 °F 62% 30.13 in 10.0 mi ENE 3.5 mph - N/A   Scattered Clouds
7:55 PM 64.9 °F 55.0 °F 70% 30.13 in 10.0 mi Calm Calm - N/A   Scattered Clouds
8:55 PM 63.9 °F 55.9 °F 75% 30.14 in 10.0 mi Calm Calm - N/A   Scattered Clouds
9:55 PM 61.0 °F 55.9 °F 83% 30.15 in 10.0 mi Calm Calm - N/A   Scattered Clouds
10:55 PM 60.8 °F 55.4 °F 82% 30.15 in 10.0 mi Calm Calm - N/A   Scattered Clouds
11:58 PM 60.8 °F 55.8 °F 83% 30.16 in 10.0 mi ENE 1.2 mph - N/A   Clear